Charlotte, NC

2:42 PM EST on February 22, 2018 (GMT -0500)
Charlotte-Douglas International

Weather History for KCLT - March, 2003

Change the Weather History Date:

Saturday, March 1, 2003

  Actual Average Record
Temperature  
Mean Temperature 44 °F 47 °F  
Max Temperature 48 °F 59 °F 82 °F (1918)
Min Temperature 41 °F 36 °F 15 °F (1980)
Degree Days  
Heating Degree Days 20 18  
Month to date heating degree days 18  
Since 1 July heating degree days 2717  
Cooling Degree Days 0 0  
Month to date cooling degree days 0  
Year to date cooling degree days 0  
Moisture  
Dew Point 44 °F    
Average Humidity 98    
Maximum Humidity 100    
Minimum Humidity 87    
Precipitation  
Precipitation 0.55 in 0.13 in 2.18 in (2009)
Month to date precipitation 0.13  
Year to date precipitation 6.86  
Snow  
Snow 0.00 in 0.00 in 4.00 in (2009)
Month to date snowfall 0.0  
Since 1 July snowfall 3.7  
Snow Depth -    
Sea Level Pressure  
Sea Level Pressure 30.09 in    
Wind  
Wind Speed 5 mph (NE)    
Max Wind Speed 9 mph    
Max Gust Speed -    
Visibility 2 miles    
Events Rain    
T = Trace of Precipitation, MM = Missing Value Source: NWS Daily Summary

Daily Weather History Graph

Daily Weather History Graph

Search for Another Location

Airport or City:

Trip Planner

Search our weather history database for the weather conditions in past years. The results will help you decide how hot, cold, wet, or windy it might be!

Date:

Astronomy

Mar. 01, 2003 Rise Set
Actual Time 6:53 AM EST 6:19 PM EST
Civil Twilight 6:28 AM EST 6:44 PM EST
Nautical Twilight 5:58 AM EST 7:13 PM EST
Astronomical Twilight 5:29 AM EST 7:43 PM EST
Moon 6:27 AM EST (3/1) 5:00 PM EST (3/1)
Length of Visible Light 12h 16m
Length of Day
11h 25m
Waning Crescent, 2% of the Moon is Illuminated
Mar 1
Waning Crescent
Mar 2
New
Mar 11
First Quarter
Mar 18
Full
Mar 24
Last Quarter

Hourly Weather History & Observations

Time (EST) Temp. Windchill Dew Point Humidity Pressure Visibility Wind Dir Wind Speed Gust Speed Precip Events Conditions
12:51 AM 42.1 °F 40.2 °F 41.0 °F 96% 30.20 in 4.0 mi ENE 3.5 mph - N/A   Overcast
1:51 AM 42.1 °F - 41.0 °F 96% 30.20 in 4.0 mi Calm Calm - N/A   Overcast
2:51 AM 42.1 °F 40.2 °F 41.0 °F 96% 30.17 in 4.0 mi East 3.5 mph - N/A   Overcast
3:51 AM 42.1 °F - 41.0 °F 96% 30.17 in 4.0 mi Calm Calm - N/A   Overcast
4:51 AM 42.1 °F 40.2 °F 42.1 °F 100% 30.17 in 3.0 mi East 3.5 mph - N/A   Overcast
5:51 AM 41.0 °F 37.1 °F 41.0 °F 100% 30.18 in 2.5 mi SE 5.8 mph - N/A   Overcast
6:18 AM 41.0 °F 37.1 °F 41.0 °F 100% 30.18 in 1.5 mi ESE 5.8 mph - 0.00 in   Light Drizzle
6:51 AM 41.0 °F 38.0 °F 41.0 °F 100% 30.19 in 0.5 mi SE 4.6 mph - 0.00 in   Light Drizzle
7:51 AM 42.1 °F 39.2 °F 42.1 °F 100% 30.20 in 0.5 mi ESE 4.6 mph - 0.00 in   Light Drizzle
7:54 AM 42.1 °F 39.2 °F 42.1 °F 100% 30.20 in 0.5 mi ESE 4.6 mph - 0.00 in   Light Drizzle
8:00 AM 42.8 °F 40.1 °F 42.8 °F 100% 30.20 in 0.5 mi ESE 4.6 mph - N/A   Light Drizzle
8:51 AM 43.0 °F 39.5 °F 43.0 °F 100% 30.20 in 1.0 mi Variable 5.8 mph - 0.00 in   Light Drizzle
9:51 AM 43.0 °F 40.3 °F 43.0 °F 100% 30.20 in 1.0 mi ESE 4.6 mph - 0.00 in   Overcast
10:51 AM 44.1 °F 40.8 °F 44.1 °F 100% 30.19 in 1.0 mi Variable 5.8 mph - N/A   Overcast
11:08 AM 44.6 °F 42.2 °F 44.6 °F 100% 30.18 in 1.8 mi Variable 4.6 mph - N/A   Overcast
11:51 AM 46.9 °F - 46.0 °F 97% 30.16 in 2.5 mi ENE 5.8 mph - N/A   Overcast
12:30 PM 46.4 °F 44.3 °F 44.6 °F 93% 30.13 in 4.0 mi NE 4.6 mph - N/A   Overcast
12:51 PM 48.0 °F - 45.0 °F 89% 30.13 in 5.0 mi East 6.9 mph - N/A   Overcast
1:21 PM 48.2 °F - 44.6 °F 87% 30.11 in 4.0 mi East 6.9 mph - N/A   Overcast
1:51 PM 48.0 °F - 45.0 °F 89% 30.10 in 4.0 mi North 3.5 mph - 0.00 in   Overcast
2:12 PM 46.4 °F 42.9 °F 44.6 °F 93% 30.09 in 2.5 mi ENE 6.9 mph - N/A   Overcast
2:18 PM 46.4 °F 43.5 °F 46.4 °F 100% 30.08 in 1.8 mi NNE 5.8 mph - N/A   Overcast
2:29 PM 46.4 °F 42.4 °F 46.4 °F 100% 30.07 in 1.8 mi NNE 8.1 mph - N/A   Overcast
2:51 PM 46.0 °F 42.5 °F 46.0 °F 100% 30.07 in 1.0 mi NNE 6.9 mph - 0.01 in Rain Light Rain
3:08 PM 46.4 °F 42.9 °F 46.4 °F 100% 30.06 in 1.0 mi North 6.9 mph - 0.03 in Rain Rain
3:51 PM 46.0 °F 41.9 °F 46.0 °F 100% 30.04 in 1.2 mi NE 8.1 mph - 0.09 in Rain Heavy Rain
4:21 PM 46.4 °F 41.9 °F 46.4 °F 100% 30.02 in 1.8 mi NE 9.2 mph - 0.12 in Rain Light Rain
4:34 PM 46.4 °F 42.9 °F 46.4 °F 100% 30.02 in 2.0 mi NE 6.9 mph - 0.12 in   Overcast
4:51 PM 46.0 °F 42.5 °F 46.0 °F 100% 30.02 in 2.0 mi NE 6.9 mph - 0.12 in   Overcast
4:59 PM 46.4 °F 42.9 °F 46.4 °F 100% 30.02 in 3.0 mi NE 6.9 mph - 0.00 in   Light Drizzle
5:17 PM 46.4 °F 43.5 °F 46.4 °F 100% 30.01 in 1.8 mi NNE 5.8 mph - 0.02 in Rain Light Rain
5:51 PM 46.0 °F 42.5 °F 46.0 °F 100% 30.01 in 1.2 mi North 6.9 mph - 0.06 in Rain Rain
6:51 PM 46.0 °F 41.9 °F 46.0 °F 100% 30.00 in 1.8 mi North 8.1 mph - 0.09 in Rain Rain
7:32 PM 46.4 °F 42.9 °F 46.4 °F 100% 29.99 in 3.0 mi North 6.9 mph - 0.12 in   Overcast
7:51 PM 46.0 °F 41.9 °F 46.0 °F 100% 29.98 in 2.5 mi North 8.1 mph - 0.12 in Rain Light Rain
8:51 PM 45.0 °F 41.2 °F 45.0 °F 100% 29.98 in 2.0 mi North 6.9 mph - 0.03 in Rain Light Rain
9:51 PM 45.0 °F 42.6 °F 45.0 °F 100% 29.97 in 2.0 mi NNE 4.6 mph - 0.01 in   Light Drizzle
10:12 PM 44.6 °F 40.2 °F 44.6 °F 100% 29.97 in 2.0 mi North 8.1 mph - 0.00 in Rain Light Rain
10:51 PM 45.0 °F 41.8 °F 45.0 °F 100% 29.95 in 2.0 mi NNE 5.8 mph - 0.01 in Rain Light Rain
11:51 PM 45.0 °F 41.2 °F 45.0 °F 100% 29.92 in 2.0 mi North 6.9 mph - 0.01 in Rain Light Rain